TimeCST,TemperatureF,Dew PointF,Humidity,Sea Level PressureIn,VisibilityMPH,Wind Direction,Wind SpeedMPH,Gust SpeedMPH,PrecipitationIn,Events,Conditions,WindDirDegrees,DateUTC
12:34 AM,28.4,24.8,86,29.91,10.0,NNW,12.7,-,N/A,,Overcast,330,2013-01-13 06:34:00
12:53 AM,27.0,26.1,96,29.94,10.0,North,11.5,-,N/A,,Overcast,350,2013-01-13 06:53:00
1:30 AM,26.6,24.8,93,29.91,9.0,NNW,9.2,-,N/A,,Overcast,340,2013-01-13 07:30:00
1:53 AM,27.0,25.0,92,29.95,10.0,NNW,15.0,-,N/A,,Overcast,330,2013-01-13 07:53:00
2:53 AM,26.1,24.1,92,30.02,10.0,NNW,11.5,-,N/A,,Overcast,330,2013-01-13 08:53:00
3:53 AM,25.0,24.1,96,30.01,6.0,NW,12.7,-,N/A,,Overcast,310,2013-01-13 09:53:00
4:53 AM,24.1,23.0,96,29.99,8.0,NW,15.0,23.0,N/A,,Overcast,320,2013-01-13 10:53:00
5:19 AM,24.8,21.2,86,29.98,10.0,North,13.8,21.9,N/A,,Overcast,350,2013-01-13 11:19:00
5:53 AM,23.0,21.0,92,30.07,10.0,NNW,12.7,-,N/A,,Overcast,340,2013-01-13 11:53:00
6:53 AM,23.0,19.9,88,30.10,10.0,NW,12.7,-,N/A,,Overcast,320,2013-01-13 12:53:00
7:48 AM,23.0,19.4,86,30.08,10.0,NW,8.1,-,N/A,,Overcast,320,2013-01-13 13:48:00
7:53 AM,21.9,19.9,92,30.10,10.0,NNW,9.2,-,N/A,,Overcast,330,2013-01-13 13:53:00
8:18 AM,21.2,19.4,93,30.07,10.0,NW,6.9,-,N/A,,Overcast,310,2013-01-13 14:18:00
8:53 AM,21.9,19.0,89,30.09,6.0,NW,16.1,21.9,N/A,,Overcast,310,2013-01-13 14:53:00
9:53 AM,21.0,18.0,88,30.16,8.0,WNW,11.5,-,N/A,,Overcast,300,2013-01-13 15:53:00
10:53 AM,21.0,17.1,85,30.15,8.0,NW,11.5,-,N/A,,Overcast,320,2013-01-13 16:53:00
11:53 AM,19.9,17.1,89,30.14,8.0,WNW,8.1,17.3,N/A,,Overcast,300,2013-01-13 17:53:00
12:25 PM,21.2,17.6,86,30.09,10.0,NW,12.7,-,N/A,,Overcast,320,2013-01-13 18:25:00
12:53 PM,21.0,17.1,85,30.14,10.0,WNW,16.1,-,N/A,,Overcast,290,2013-01-13 18:53:00
1:53 PM,19.9,16.0,85,30.16,10.0,NW,15.0,24.2,N/A,,Overcast,310,2013-01-13 19:53:00
2:37 PM,19.4,15.8,86,30.14,10.0,WNW,11.5,-,N/A,,Mostly Cloudy,300,2013-01-13 20:37:00
2:53 PM,19.9,16.0,85,30.19,10.0,NW,11.5,-,N/A,,Scattered Clouds,310,2013-01-13 20:53:00
3:02 PM,21.2,17.6,86,30.15,10.0,NW,11.5,-,N/A,,Mostly Cloudy,310,2013-01-13 21:02:00
3:09 PM,21.2,17.6,86,30.16,10.0,WNW,12.7,-,N/A,,Mostly Cloudy,300,2013-01-13 21:09:00
3:51 PM,21.2,17.6,86,30.19,10.0,WNW,11.5,-,N/A,,Scattered Clouds,300,2013-01-13 21:51:00
3:53 PM,21.0,17.1,85,30.24,10.0,WNW,9.2,-,N/A,,Scattered Clouds,290,2013-01-13 21:53:00
4:24 PM,21.2,17.6,86,30.19,10.0,WNW,9.2,-,N/A,,Mostly Cloudy,300,2013-01-13 22:24:00
4:53 PM,21.0,16.0,81,30.25,10.0,NW,11.5,-,N/A,,Mostly Cloudy,310,2013-01-13 22:53:00
5:02 PM,19.4,15.8,86,30.21,10.0,WNW,11.5,-,N/A,,Scattered Clouds,300,2013-01-13 23:02:00
5:53 PM,18.0,15.1,88,30.27,10.0,Calm,Calm,-,N/A,,Partly Cloudy,0,2013-01-13 23:53:00
6:53 PM,18.0,14.0,84,30.29,10.0,WNW,4.6,-,N/A,,Clear,290,2013-01-14 00:53:00
7:53 PM,18.0,12.9,81,30.29,10.0,NW,8.1,-,N/A,,Clear,310,2013-01-14 01:53:00
8:53 PM,17.1,12.9,84,30.30,10.0,NW,8.1,-,N/A,,Clear,310,2013-01-14 02:53:00
9:53 PM,16.0,12.0,84,30.31,10.0,NW,4.6,-,N/A,,Clear,310,2013-01-14 03:53:00
10:53 PM,12.9,10.0,88,30.37,10.0,SW,3.5,-,N/A,,Clear,230,2013-01-14 04:53:00
11:53 PM,12.0,9.0,88,30.38,10.0,SW,3.5,-,N/A,,Clear,230,2013-01-14 05:53:00